Laurinburg-Maxton, NC

6:20 PM EST on December 18, 2017 (GMT -0500)
Laurinburg-Maxton

Weather History for KMEB - December, 2012

Change the Weather History Date:

Wednesday, December 5, 2012

  Actual Average (KHFF) Record (KHFF)
Temperature  
Mean Temperature 60 °F -  
Max Temperature 70 °F 59 °F 75 °F (2001)
Min Temperature 50 °F 35 °F 19 °F (2000)
Degree Days  
Heating Degree Days 5    
Growing Degree Days 10 (Base 50)    
Moisture  
Dew Point 52 °F    
Average Humidity 85    
Maximum Humidity 100    
Minimum Humidity 55    
Precipitation  
Precipitation 0.05 in - - ()
Sea Level Pressure  
Sea Level Pressure 30.17 in    
Wind  
Wind Speed 6 mph (WSW)    
Max Wind Speed 15 mph    
Max Gust Speed -    
Visibility 6 miles    
Events Fog , Rain    
Averages and records for this station are not official NWS values.
T = Trace of Precipitation, MM = Missing Value Source: NWS Daily Summary

Daily Weather History Graph

Daily Weather History Graph

Search for Another Location

Airport or City:

Trip Planner

Search our weather history database for the weather conditions in past years. The results will help you decide how hot, cold, wet, or windy it might be!

Date:

Astronomy

Dec. 05, 2012 Rise Set
Actual Time 7:10 AM EST 5:06 PM EST
Civil Twilight 6:42 AM EST 5:33 PM EST
Nautical Twilight 6:11 AM EST 6:05 PM EST
Astronomical Twilight 5:40 AM EST 6:35 PM EST
Moon 11:41 PM EST (12/5) 11:44 AM EST (12/5)
Length of Visible Light 10h 51m
Length of Day
9h 55m
Waning Gibbous, 60% of the Moon is Illuminated
Dec 5
Waning Gibbous
Dec 6
Last Quarter
Dec 13
New
Dec 20
First Quarter
Dec 28
Full

Hourly Weather History & Observations

Time (EST) Temp. Dew Point Humidity Pressure Visibility Wind Dir Wind Speed Gust Speed Precip Events Conditions
12:52 AM 53.1 °F 50.0 °F 89% 30.21 in 10.0 mi SSW 6.9 mph - N/A   Partly Cloudy
1:52 AM 53.1 °F 52.0 °F 96% 30.20 in 10.0 mi SSW 4.6 mph - N/A   Clear
2:52 AM 54.0 °F 54.0 °F 100% 30.19 in 7.0 mi SW 3.5 mph - N/A   Clear
3:09 AM 53.6 °F 51.8 °F 94% 30.19 in 1.8 mi WSW 3.5 mph - N/A   Clear
3:16 AM 51.8 °F 51.8 °F 100% 30.19 in 0.5 mi SSW 4.6 mph - N/A Fog Fog
3:24 AM 53.6 °F 53.6 °F 100% 30.19 in 1.0 mi SW 4.6 mph - N/A   Clear
3:28 AM 51.8 °F 51.8 °F 100% 30.19 in 0.8 mi WSW 3.5 mph - N/A   Mist
3:30 AM 51.8 °F 51.8 °F 100% 30.18 in 0.5 mi WSW 3.5 mph - N/A Fog Fog
3:52 AM 53.1 °F 53.1 °F 100% 30.17 in 0.2 mi SW 4.6 mph - N/A Fog Fog
4:34 AM 51.8 °F 51.8 °F 100% 30.16 in 1.0 mi SW 5.8 mph - N/A   Mist
4:52 AM 52.0 °F 51.1 °F 97% 30.17 in 1.0 mi WSW 4.6 mph - N/A   Clear
4:59 AM 53.6 °F 51.8 °F 94% 30.17 in 0.5 mi WSW 4.6 mph - N/A Fog Fog
5:35 AM 53.6 °F 53.6 °F 100% 30.17 in 0.2 mi WSW 4.6 mph - N/A Fog Fog
5:52 AM 52.0 °F 52.0 °F 100% 30.17 in 0.2 mi SW 3.5 mph - N/A Fog Fog
6:09 AM 50.0 °F 50.0 °F 100% 30.18 in 0.2 mi Calm Calm - N/A Fog Fog
6:52 AM 51.1 °F 50.0 °F 96% 30.18 in 0.2 mi SW 4.6 mph - 0.01 in Fog Fog
7:16 AM 51.8 °F 51.8 °F 100% 30.19 in 0.2 mi SW 4.6 mph - N/A Fog Fog
7:39 AM 51.8 °F 51.8 °F 100% 30.19 in 0.8 mi SW 5.8 mph - N/A   Clear
7:47 AM 53.6 °F 53.6 °F 100% 30.20 in 1.0 mi SW 5.8 mph - N/A   Clear
7:52 AM 53.1 °F 53.1 °F 100% 30.20 in 1.2 mi WSW 5.8 mph - N/A   Clear
9:52 AM 63.0 °F 54.0 °F 72% 30.20 in 10.0 mi WSW 8.1 mph - N/A   Clear
10:52 AM 66.0 °F 53.1 °F 63% 30.19 in 10.0 mi WSW 10.4 mph - N/A   Mostly Cloudy
11:52 AM 68.0 °F 53.1 °F 59% 30.16 in 10.0 mi WSW 10.4 mph - N/A   Overcast
12:52 PM 69.1 °F 53.1 °F 57% 30.14 in 10.0 mi SW 6.9 mph - N/A   Overcast
1:52 PM 70.0 °F 53.1 °F 55% 30.11 in 10.0 mi West 6.9 mph - N/A   Overcast
2:52 PM 70.0 °F 54.0 °F 57% 30.10 in 10.0 mi WSW 5.8 mph - N/A   Overcast
3:52 PM 69.1 °F 55.0 °F 61% 30.11 in 10.0 mi North 3.5 mph - N/A   Overcast
4:52 PM 66.0 °F 55.9 °F 70% 30.12 in 10.0 mi NNE 9.2 mph - N/A   Overcast
5:52 PM 62.1 °F 57.9 °F 86% 30.14 in 10.0 mi North 4.6 mph - N/A Rain Light Rain
6:17 PM 62.6 °F 55.4 °F 77% 30.15 in 6.0 mi NNE 8.1 mph - 0.00 in   Haze
6:50 PM 62.6 °F 53.6 °F 72% 30.16 in 10.0 mi NNE 12.7 mph - 0.00 in   Overcast
6:52 PM 62.1 °F 53.1 °F 72% 30.16 in 10.0 mi NNE 11.5 mph - 0.00 in   Overcast
7:20 PM 60.8 °F 50.0 °F 68% 30.18 in 10.0 mi NNE 11.5 mph - N/A   Overcast
7:52 PM 59.0 °F 48.0 °F 67% 30.19 in 10.0 mi NE 15.0 mph - N/A   Overcast
8:52 PM 55.9 °F 50.0 °F 80% 30.18 in 10.0 mi NE 4.6 mph - 0.01 in   Overcast
9:52 PM 55.0 °F 52.0 °F 89% 30.19 in 10.0 mi NE 3.5 mph - 0.02 in Rain Light Rain
10:52 PM 55.0 °F 52.0 °F 89% 30.19 in 10.0 mi ENE 5.8 mph - 0.01 in   Overcast
11:52 PM 54.0 °F 50.0 °F 86% 30.20 in 10.0 mi NE 5.8 mph - N/A   Overcast